HAIYANG 2A

导读

HAIYANG 2A(HY-2A/海洋二号A)是中国首枚海洋动力环境卫星,于北京时间2011年8月16日在太原卫星发射中心成功发射。它集成主被动微波遥感器,具备高精度测轨定轨能力,可全天候全天时获取海面风场、浪高、海温等海洋动力参数,为海洋防灾减灾、资源开发和科学研究提供关键数据支撑,是中国海洋遥感卫星体系的重要开篇。

Basic Information
目录编号:
37781
目录名称:
HAIYANG 2A
国际标识:
2011-043A
轨道中心:
EARTH
卫星名称:
HAIYANG 2A
卫星全名:
--
卫星状态:
在轨 (已飞行5460 天)
发射日期:
2011-08-15 UTC
国别 :
中国 (CN)
星等 :
--
Orbit Information
数据来源 国际轨道数据 AOE轨道数据
星历时间 2026-07-27T22:35:38+0800
9小时前
查看轨道信息
2026-07-27T01:00:00+0800
1天前
查看轨道信息
半长轴 7367.2km 7366.952km
偏心率 0.000104 0.0001025
轨道倾角 99.343° 99.340°
近地点辐角 347.165° 333.353°
升交点赤经 210.344° 209.466°
平近点角 12.947° 261.909°
近地点 988.296km 988.059km
远地点 989.83km 989.571km
周期 104.885分钟 104.880分钟
每日圈数 13.729324 13.730016
Detailed Information
使用方式:
暂无
2D Orbit Map
3D Orbit Map
Orbit Altitude Analysis Chart
Orbit Inclination Analysis Chart
Orbit Comprehensive Analysis Chart
View Comprehensive Chart